Wind_Speed
26 28 29 30 31 32 32 32 32 32 30 29 28 27 27 27 25 23 22 20 18 18 19 19 19 19 17 15 14 12 11 11 12 7 11 25 31 24 16 11 14 18 14 17 27 23 15 13 13 15 12 7 3 3 7 8 4 2 2 2 2 3 3 3 3 3 2 3 6 6 7 7 5 4 4 5 2 1 3 3 7 5 7 13 18 28 32 32
28 29 30 32 33 35 35 34 33 32 31 30 29 28 29 27 25 24 22 19 18 18 19 20 20 19 17 14 12 10 9 11 11 12 25 35 30 23 24 18 13 21 21 22 29 25 16 11 12 12 7 4 4 4 6 7 6 5 2 2 4 4 4 4 4 3 2 3 6 7 7 7 6 7 6 6 4 3 3 4 10 10 11 16 21 30 31 32
30 33 35 35 35 37 37 35 35 34 33 32 30 30 29 27 25 23 22 20 19 19 19 20 20 18 16 13 10 7 7 8 7 14 22 23 25 26 25 24 18 24 28 27 31 29 22 19 17 12 6 5 4 5 7 6 7 6 3 2 6 6 4 4 5 5 4 4 7 6 6 7 6 8 7 7 7 7 7 8 12 12 14 17 19 25 30 30
34 36 37 36 37 38 38 37 36 35 35 33 32 31 30 27 25 23 22 21 20 20 19 19 19 17 14 10 6 4 5 5 5 8 6 6 7 16 23 28 23 26 29 27 28 25 23 22 17 11 6 5 4 5 7 6 5 5 6 7 5 4 5 7 7 6 6 5 7 6 5 6 7 8 8 9 9 7 10 12 14 17 19 20 19 23 28 27
37 37 38 38 39 39 39 39 38 37 36 34 33 31 30 28 26 25 24 23 22 21 19 18 17 15 11 6 2 2 2 1 4 3 1 5 6 4 22 31 28 29 29 24 21 17 18 18 13 8 5 4 5 5 7 10 6 3 9 12 7 3 4 6 7 8 7 5 5 7 6 6 6 8 10 12 11 10 12 13 16 20 22 23 23 23 24 23
37 37 38 38 38 38 39 39 38 37 37 35 34 32 30 28 28 27 25 24 23 20 17 15 14 12 8 1 1 1 1 1 7 3 4 4 9 5 18 33 31 29 29 24 18 13 13 12 10 8 5 4 8 8 6 10 8 6 8 10 10 7 8 5 4 7 7 6 5 7 7 5 7 8 10 13 13 9 9 13 16 18 22 25 24 22 22 21
37 38 38 38 38 38 38 38 38 37 37 35 33 31 30 30 30 29 27 24 21 18 15 13 11 8 4 1 2 0 0 7 13 8 8 11 13 10 15 32 33 29 28 24 17 11 10 11 11 8 6 6 8 10 5 6 10 9 8 10 11 10 12 9 4 5 6 9 10 8 6 6 9 8 9 13 11 8 10 13 16 17 20 24 22 21 21 21
38 39 39 39 38 38 38 38 38 37 36 34 33 31 30 31 31 30 28 24 19 16 13 9 7 4 1 3 2 1 2 10 15 11 11 12 9 4 19 31 32 31 28 26 21 13 11 12 13 8 7 8 5 8 7 5 7 11 13 12 10 8 10 10 6 6 6 8 9 8 7 10 12 7 7 12 10 12 15 15 17 17 19 20 20 21 20 18
40 41 41 40 39 39 39 39 38 37 35 33 32 30 30 32 31 30 27 24 18 14 11 7 3 1 4 3 2 3 5 5 8 8 6 6 3 8 26 32 33 31 24 25 25 18 12 10 13 9 6 8 5 5 8 6 6 10 15 12 8 8 8 6 8 9 8 7 7 9 9 10 11 6 3 8 12 15 17 18 18 19 19 18 19 20 19 18
41 41 42 42 40 40 39 39 38 37 34 32 30 29 30 31 31 28 25 24 18 12 8 3 1 2 5 4 3 3 3 8 16 16 14 8 3 16 29 33 36 33 20 19 20 17 13 10 13 8 1 4 6 5 7 9 5 6 11 10 10 11 9 6 8 11 10 7 7 11 9 6 7 6 3 5 14 17 19 19 19 20 20 19 18 17 17 18
42 43 43 43 41 40 39 39 38 36 34 31 29 29 28 30 29 25 24 23 16 8 4 3 3 5 6 4 3 5 5 7 11 13 17 10 6 18 28 34 38 33 22 15 17 21 18 13 12 6 1 2 5 6 7 10 6 6 7 9 12 12 10 8 9 11 7 5 8 10 6 3 5 5 4 8 15 19 20 20 20 20 18 18 18 16 14 15
44 44 44 43 42 40 39 39 37 35 33 29 28 27 26 27 25 23 24 20 12 6 2 3 4 8 5 2 6 12 8 7 3 13 17 8 5 14 24 33 38 37 29 15 15 25 23 16 14 9 6 2 2 4 6 10 9 9 7 8 12 9 9 10 9 10 8 6 8 8 2 1 5 5 8 12 14 18 20 20 20 18 17 16 16 15 13 14
45 45 44 44 42 40 39 38 38 35 31 29 27 24 24 23 23 23 21 14 10 6 1 2 4 8 4 1 11 19 14 11 16 24 22 10 7 13 17 27 34 35 35 27 23 30 25 18 16 11 6 2 2 2 4 5 7 9 8 7 9 6 8 10 7 9 11 8 10 10 2 4 8 7 12 15 15 18 18 18 18 16 15 15 14 13 13 15
46 46 44 44 42 40 38 38 38 34 29 27 25 22 21 21 23 23 16 8 9 7 1 2 5 7 3 6 15 19 17 18 22 24 21 10 8 12 14 22 27 25 26 26 25 29 28 18 10 5 5 4 3 6 8 4 2 5 6 6 5 4 7 8 6 9 10 8 13 12 5 6 8 8 14 16 17 19 17 17 17 15 14 14 14 14 14 15
47 46 45 43 42 40 37 37 37 32 27 26 23 21 19 20 24 20 10 5 8 8 2 5 7 5 1 10 15 13 9 9 12 14 13 8 10 10 14 21 25 24 19 15 13 18 24 15 5 3 4 3 3 6 7 3 2 2 4 4 3 5 7 7 5 11 11 6 12 12 4 5 7 8 15 16 17 19 18 17 17 16 16 15 14 14 14 14
48 47 46 43 41 40 37 36 35 30 26 23 22 20 16 20 22 13 4 4 9 9 3 5 6 4 1 7 8 6 3 3 6 12 15 6 13 10 15 21 20 22 18 13 8 9 16 11 3 4 3 2 2 3 3 4 3 2 4 4 3 4 5 5 4 10 14 8 10 12 5 3 5 9 15 17 19 19 17 18 18 17 17 16 13 13 14 13
49 48 46 42 40 39 36 35 32 28 25 21 22 18 14 19 18 7 2 5 11 9 1 3 4 4 4 8 5 6 5 7 13 19 24 15 12 12 13 13 10 14 13 10 7 5 9 7 3 3 3 4 3 3 2 6 6 3 3 4 4 4 4 3 5 6 12 10 10 13 7 4 6 12 16 17 20 18 17 18 18 17 16 15 13 13 14 14
50 49 47 42 40 38 35 33 28 26 23 21 22 16 11 16 12 3 3 6 12 5 2 1 1 2 4 6 5 9 11 16 25 29 28 19 12 17 14 9 6 10 7 3 5 5 5 4 4 4 4 6 5 6 7 7 6 4 4 3 3 5 5 6 5 3 9 10 11 13 10 7 7 14 17 17 20 19 18 18 17 17 16 16 14 13 14 15
50 50 47 43 40 36 34 31 24 24 22 21 23 13 8 12 5 1 1 7 8 1 1 2 2 1 7 11 13 17 19 22 25 22 15 7 9 17 13 8 7 10 6 3 5 7 6 3 5 6 8 12 12 12 11 4 2 5 6 4 4 5 5 6 7 4 10 10 10 13 12 9 8 14 17 17 19 18 17 16 15 15 15 15 14 13 14 16
49 50 47 42 38 33 32 27 20 23 22 22 24 12 6 11 4 2 8 8 2 5 8 8 5 4 11 13 16 21 23 19 12 9 10 7 3 11 8 5 6 7 6 6 6 7 7 5 7 12 15 16 14 11 10 6 5 4 5 5 6 6 6 6 7 5 9 9 9 13 13 10 9 14 17 17 17 16 15 16 15 15 15 15 16 16 16 17
49 50 47 41 35 30 29 22 18 23 20 20 23 11 3 7 3 5 11 9 4 8 11 12 9 10 13 14 17 18 14 10 8 9 15 14 2 7 6 6 7 6 8 8 5 5 7 8 13 18 14 10 9 8 8 9 9 6 4 4 5 6 7 8 7 4 6 8 9 12 11 10 11 14 16 17 18 17 17 18 17 18 17 16 17 19 18 15
50 51 47 40 32 27 25 18 17 22 18 16 18 9 2 7 5 6 7 8 6 3 8 11 8 9 13 16 19 12 3 4 11 11 9 7 4 6 6 8 8 7 8 8 5 5 7 11 18 16 7 5 7 6 8 10 10 8 4 4 5 4 3 7 8 5 5 6 7 9 10 11 12 13 16 19 19 18 18 20 20 20 19 16 18 19 17 15
51 51 47 39 29 25 21 14 15 20 18 13 10 6 7 15 14 8 4 5 8 4 4 5 3 5 7 8 7 2 2 2 7 8 6 4 3 5 6 9 10 8 9 10 9 8 7 11 15 10 7 8 8 7 9 8 7 7 5 5 6 4 2 5 8 5 5 6 4 6 8 9 9 10 14 19 20 17 18 21 20 19 20 21 21 19 18 18
52 51 48 39 28 22 18 10 13 21 19 11 5 9 18 21 17 11 4 2 5 6 5 3 3 2 6 6 3 2 2 2 3 5 4 1 2 3 5 8 10 9 10 12 12 11 8 7 6 10 9 11 10 8 8 7 6 8 8 8 8 7 7 8 4 3 2 3 2 5 3 5 6 8 11 14 15 15 17 19 18 18 20 19 19 18 17 19
53 51 48 40 26 20 15 6 11 22 19 8 6 18 26 24 21 14 4 1 4 5 3 3 1 4 8 10 9 1 3 2 6 7 4 3 4 4 3 5 8 9 11 13 12 10 10 7 8 13 12 12 13 10 9 9 6 7 10 13 12 9 10 9 2 3 4 4 2 4 1 6 4 10 13 11 12 14 15 18 20 19 17 15 14 15 17 18
53 51 47 39 25 20 13 3 11 23 14 5 13 25 27 27 25 13 2 3 4 4 2 4 2 8 13 12 12 3 3 3 6 7 6 6 7 4 4 4 6 9 11 10 7 6 8 8 8 12 14 13 13 10 10 10 6 8 13 14 14 10 10 9 3 2 3 5 4 3 4 5 3 9 14 12 15 18 16 17 20 18 15 15 14 16 17 17
52 50 46 35 23 17 10 4 15 18 6 8 23 29 28 30 22 6 2 2 3 2 2 5 4 9 15 13 14 4 2 9 9 4 8 11 8 6 7 5 5 7 8 6 6 6 8 11 10 10 13 13 12 11 12 12 8 10 10 10 10 10 13 12 4 4 4 4 6 1 4 4 3 7 14 15 17 19 18 18 19 17 17 18 18 18 19 19
51 51 44 31 20 14 8 10 17 12 9 20 29 30 32 29 12 3 3 1 2 2 1 4 6 10 14 13 10 2 1 7 7 7 19 20 8 6 7 6 5 5 8 9 9 6 9 14 14 12 11 10 11 14 13 13 11 8 5 7 8 9 13 11 4 4 3 3 7 6 3 3 5 6 10 14 16 18 19 20 19 18 20 20 20 19 20 20
51 50 41 28 17 11 11 15 14 12 21 28 29 32 31 18 3 5 4 0 1 4 1 4 8 10 13 12 6 5 4 5 5 9 17 15 7 4 5 5 5 6 8 12 10 6 7 11 13 13 10 9 10 11 11 13 12 4 6 6 6 7 10 7 5 4 2 3 9 10 4 3 6 5 6 10 14 17 18 18 18 20 21 20 20 20 19 18
50 49 37 23 14 12 15 16 16 20 28 28 29 33 23 6 4 4 1 2 1 5 3 4 8 10 13 12 7 10 9 6 6 10 11 11 13 10 3 3 3 5 7 10 11 8 6 5 11 12 11 8 6 7 10 14 12 4 4 4 3 5 5 3 4 4 4 6 10 13 8 5 6 5 5 9 13 17 16 14 16 17 18 19 18 18 18 17
50 46 31 18 13 13 13 14 22 30 30 28 30 27 11 3 4 3 2 2 2 4 4 6 9 10 13 11 8 10 9 6 9 13 12 11 14 14 9 5 3 3 5 6 8 10 9 7 6 7 11 10 6 6 9 12 13 7 5 5 3 3 2 1 1 4 7 8 8 12 9 8 8 7 6 11 16 19 17 17 19 19 19 19 18 18 18 17
50 43 25 13 13 15 13 16 28 32 28 29 25 12 4 2 2 2 2 4 2 3 4 7 10 9 11 9 7 10 8 5 10 11 10 9 8 10 9 5 4 4 6 5 4 6 10 10 7 4 9 13 10 7 7 8 10 9 6 6 5 2 2 4 4 3 7 6 6 8 7 7 9 7 9 13 17 20 19 20 21 22 23 21 19 19 17 17
48 37 19 13 16 20 23 26 30 28 27 26 15 4 6 3 0 0 2 3 1 2 3 5 9 9 9 7 7 10 7 5 11 10 8 7 5 6 7 9 11 7 3 4 3 4 6 8 11 10 7 11 12 8 7 7 8 10 8 7 7 5 5 7 5 3 4 4 7 7 5 4 5 6 11 16 18 20 21 21 20 21 24 23 22 20 18 18
46 31 16 17 20 24 30 31 29 24 22 19 7 4 6 3 1 1 2 2 1 2 3 4 7 7 7 7 6 8 5 5 12 10 7 7 6 6 8 13 18 13 5 3 1 4 8 7 11 14 7 8 13 11 9 7 7 10 9 7 8 7 6 6 4 4 3 3 6 4 5 5 4 5 10 15 18 19 19 19 17 17 20 21 20 19 18 18
42 25 15 19 23 26 30 29 28 23 14 9 5 4 4 2 2 1 1 2 2 2 4 4 5 4 4 5 5 8 5 4 10 8 6 6 5 6 7 9 14 13 8 4 4 3 8 8 6 13 11 9 13 13 10 9 7 9 8 8 10 7 5 3 4 4 4 3 6 4 4 5 4 5 6 10 15 17 19 19 16 15 15 15 14 14 15 16
41 25 14 19 26 29 29 27 28 21 6 4 5 3 1 2 2 1 1 1 1 2 3 4 4 2 3 4 4 7 7 4 9 7 4 4 4 6 5 5 11 13 11 5 4 4 4 6 3 5 11 14 15 12 12 12 7 5 9 10 7 6 6 5 4 1 4 5 6 3 4 4 2 6 5 7 11 14 16 18 19 19 16 14 13 13 15 15
39 26 12 15 28 33 28 26 27 16 2 5 4 1 2 2 2 2 1 0 2 1 2 3 4 2 4 4 3 7 7 4 8 7 4 4 3 6 5 5 10 12 11 8 3 2 4 8 10 9 11 14 13 11 13 14 8 4 7 9 5 6 4 4 3 2 3 6 5 1 5 5 3 5 4 6 9 10 13 16 19 20 17 16 16 16 18 18
30 21 7 11 28 33 27 23 20 7 3 5 1 2 1 2 2 2 1 1 1 2 4 2 2 3 3 4 4 7 7 4 7 6 4 4 2 6 7 4 7 11 13 10 3 3 5 6 9 6 7 8 8 10 9 11 13 9 5 7 7 5 6 6 4 5 5 5 5 3 4 5 6 6 5 8 10 9 11 13 16 19 18 17 18 19 21 20
21 11 2 12 30 34 27 18 8 3 4 4 1 2 1 2 2 3 2 2 1 2 3 1 1 2 3 3 3 5 5 3 5 5 3 4 3 5 10 5 6 11 14 11 4 4 5 3 5 4 4 9 4 8 7 8 12 11 5 7 7 6 6 6 3 3 4 4 4 3 3 5 6 6 8 11 11 10 10 11 14 18 19 17 16 18 19 19
12 3 2 18 33 34 26 11 4 4 4 2 1 1 2 1 3 6 5 5 2 1 1 1 1 2 2 3 3 3 3 1 3 3 1 4 4 3 10 10 10 13 13 8 4 5 4 1 4 8 10 8 3 7 10 10 9 9 7 7 8 4 3 5 3 2 4 4 3 3 5 6 5 5 9 11 11 11 11 11 13 16 18 17 17 18 18 17
5 0 4 23 37 33 20 8 5 4 3 1 2 2 5 3 4 6 7 6 3 1 1 1 2 2 1 2 2 2 3 0 2 1 1 4 4 3 8 12 12 13 11 6 4 4 3 1 4 8 8 4 7 6 3 4 4 6 7 8 9 6 4 6 6 2 3 3 4 4 5 8 6 5 9 10 10 11 11 12 12 14 17 17 17 18 19 18
2 1 8 24 35 28 12 7 3 4 3 2 4 4 6 5 4 5 7 7 4 2 1 1 2 2 1 1 2 2 3 1 1 1 1 4 5 5 8 13 12 12 10 6 5 6 4 2 4 7 6 8 16 16 11 11 10 7 7 8 8 5 6 8 8 4 4 3 2 2 3 8 6 6 9 10 11 12 12 11 10 11 14 15 16 18 18 19
1 4 10 22 30 19 6 5 4 4 2 4 5 5 6 4 4 5 6 7 6 4 4 1 2 2 1 0 2 3 4 2 1 2 1 3 4 5 8 11 12 11 8 5 4 6 5 2 3 6 7 9 15 15 11 10 7 5 6 7 7 7 8 8 6 5 5 5 4 2 5 9 7 4 6 7 8 9 9 10 11 11 11 14 17 17 16 18
2 4 6 16 26 17 7 3 4 3 4 6 6 5 6 4 5 6 5 5 4 4 4 2 2 1 0 1 2 2 4 2 1 1 1 2 2 4 7 9 11 9 6 5 5 5 4 2 2 4 5 5 7 7 6 4 1 2 5 6 9 13 12 4 2 4 5 8 9 6 7 10 6 0 1 5 5 6 8 9 11 13 13 14 15 13 14 16
4 2 4 7 18 15 6 2 2 2 4 7 5 5 6 5 5 8 7 2 3 4 3 1 2 1 1 3 2 2 3 0 2 2 2 2 2 2 5 8 9 8 9 13 13 6 2 2 0 1 2 4 5 4 2 4 6 5 6 8 9 13 15 7 4 5 7 6 8 8 8 11 9 7 8 7 4 6 9 8 10 13 15 16 14 12 13 14
2 1 3 4 7 7 3 2 3 2 3 5 4 4 6 6 4 7 7 3 4 7 4 2 3 3 3 3 2 3 3 2 2 2 3 2 2 1 3 6 9 10 12 15 14 5 1 3 3 4 6 7 7 6 5 6 8 9 11 13 14 13 13 9 5 5 7 5 6 9 9 10 14 14 14 12 6 6 9 7 10 13 13 14 13 13 13 13
1 1 2 3 2 3 3 2 4 3 2 3 3 4 5 7 5 6 5 3 5 8 4 1 5 5 3 4 2 3 3 2 2 3 3 3 2 3 4 6 8 9 9 11 11 6 1 3 5 8 10 10 11 14 15 12 11 13 14 15 16 15 10 12 11 7 7 7 6 8 6 9 16 17 16 15 8 6 8 7 11 13 13 12 13 13 15 15
1 0 0 1 2 3 3 4 5 5 5 4 2 3 4 6 6 5 4 4 6 6 4 3 4 5 4 5 2 2 3 3 3 3 3 2 3 3 3 5 6 6 8 8 8 5 2 3 5 6 9 12 14 17 17 14 13 14 14 16 18 16 12 15 15 10 9 8 9 7 7 12 17 17 16 14 7 5 8 7 8 10 12 12 12 14 15 16
1 0 0 0 1 1 3 5 6 6 7 5 3 2 4 5 6 4 3 4 5 4 3 4 6 7 6 5 3 2 2 2 4 4 2 2 4 3 2 4 4 3 5 6 7 4 2 3 5 6 10 15 15 15 14 12 11 11 12 15 17 17 16 16 12 10 11 10 8 8 10 13 15 13 11 9 5 6 7 4 4 7 10 12 13 15 16 16
0 0 1 1 1 2 3 4 4 4 5 4 2 2 3 3 5 5 3 3 4 4 3 5 8 9 8 7 4 4 5 5 6 6 3 4 5 2 3 3 3 1 2 3 4 3 1 2 4 5 8 12 11 8 8 8 9 10 9 9 11 11 13 15 10 8 8 6 4 6 9 11 10 6 5 6 4 2 3 3 7 9 11 13 14 15 16 16
2 2 2 2 2 2 2 2 2 3 3 2 1 3 4 4 4 5 4 3 4 5 4 8 11 9 7 7 6 7 8 7 9 9 7 7 7 4 4 4 5 3 2 2 2 3 2 2 4 4 5 7 7 8 13 13 9 6 6 12 15 9 2 7 3 3 3 4 2 3 5 7 7 4 2 4 7 7 5 3 4 6 9 13 15 15 15 16
3 2 1 1 2 2 1 1 1 1 1 2 3 5 5 5 2 2 4 3 5 7 6 8 11 7 5 6 7 8 9 9 10 11 9 9 10 8 6 7 9 6 3 3 2 3 3 2 3 3 3 6 6 11 15 11 6 3 3 11 14 8 7 8 7 10 5 1 4 4 5 7 7 5 2 6 9 8 6 5 4 4 6 11 14 15 16 16
Wind_Direction
358 358 356 357 357 358 357 356 357 355 353 351 350 352 354 353 351 350 348 345 343 342 339 334 328 324 318 313 310 304 307 297 287 266 232 254 253 237 232 222 194 181 151 152 164 153 152 166 170 167 163 175 203 193 195 216 213 179 190 205 242 218 222 224 218 207 157 165 156 159 169 160 146 140 117 117 47 57 173 149 117 83 94 123 131 140 147 151
357 357 355 357 357 358 358 357 357 355 353 349 349 351 353 353 351 350 348 345 342 340 338 335 328 324 321 314 309 304 306 296 284 259 250 258 261 246 229 220 193 177 162 157 161 152 155 172 171 165 158 175 191 180 183 199 203 204 186 186 228 213 212 223 221 207 172 178 156 151 167 175 159 146 144 150 162 159 175 145 113 99 107 120 133 143 150 155
357 359 359 359 357 358 357 356 356 355 353 350 349 350 352 352 351 350 348 345 340 338 335 332 328 324 322 315 311 306 300 307 287 259 265 267 258 249 227 212 198 181 175 169 167 164 166 167 165 161 156 186 192 181 185 190 195 206 206 223 241 225 239 260 230 215 222 180 144 157 168 176 168 144 160 163 154 175 184 158 134 131 135 135 142 148 154 159
1 2 0 358 357 357 356 355 355 354 353 351 350 351 351 350 351 350 348 344 337 336 331 328 328 323 322 318 310 292 291 312 269 244 284 336 262 238 214 202 194 186 183 174 171 170 162 158 160 162 163 188 201 195 202 204 190 195 205 222 238 196 221 249 235 231 236 191 155 159 153 178 182 152 169 160 145 192 201 178 157 149 147 147 151 155 159 162
3 1 360 359 357 356 355 354 354 353 352 351 351 350 350 350 350 349 346 342 337 333 327 324 325 327 329 321 313 276 272 325 284 239 172 20 18 217 196 193 191 187 184 173 168 161 149 151 156 168 177 177 186 202 222 216 204 223 220 229 239 193 220 233 225 228 214 186 156 149 160 179 173 167 182 171 171 200 196 179 161 152 153 155 157 159 163 164
2 0 359 357 356 355 354 354 353 352 351 350 350 350 350 349 348 347 344 342 338 331 325 321 322 331 334 304 132 242 188 285 299 278 218 279 346 330 185 186 190 186 184 178 167 157 149 152 160 174 182 181 195 201 217 210 212 246 239 239 240 231 242 227 203 221 182 156 169 170 184 167 158 185 195 191 199 198 174 162 156 155 157 155 156 159 165 167
1 360 358 357 356 355 353 353 352 352 351 350 350 350 350 348 347 346 344 343 337 329 324 317 319 329 329 160 159 307 88 266 279 287 283 281 302 305 182 181 187 180 181 178 167 167 160 161 173 176 176 187 207 209 214 205 212 241 258 254 245 230 237 235 217 224 173 168 191 185 175 177 185 188 193 207 207 167 146 148 150 152 154 154 157 164 169 169
1 360 358 356 355 354 353 352 352 351 350 349 349 349 349 347 346 346 345 344 337 328 322 313 324 334 214 149 144 338 252 255 283 304 299 291 302 275 171 174 183 178 175 177 174 174 165 170 180 173 185 202 204 200 205 214 217 233 244 250 250 237 240 240 222 213 196 187 192 181 175 198 203 174 180 205 184 149 142 141 146 148 154 160 163 167 170 170
2 0 358 356 355 354 353 352 352 351 350 349 349 348 348 346 346 347 345 342 337 326 320 307 320 33 186 163 99 313 253 251 340 358 325 305 315 172 167 170 179 178 175 181 180 175 168 175 186 177 184 206 213 198 187 199 223 226 233 246 256 255 256 241 208 197 208 208 177 170 189 209 200 171 185 187 154 144 141 142 149 153 160 166 167 170 171 171
2 360 358 356 354 353 352 351 351 351 351 349 348 348 347 347 348 348 344 339 333 321 314 282 201 124 181 167 109 269 229 90 63 53 33 17 155 162 165 170 177 178 176 182 183 180 179 181 185 180 151 205 220 222 189 198 227 231 238 255 258 260 262 234 209 205 206 211 182 172 193 204 178 181 225 162 144 140 141 147 153 158 165 168 170 172 171 173
2 0 358 356 354 352 352 351 351 352 351 348 348 348 349 348 347 349 346 339 331 319 295 229 165 154 178 143 139 222 215 125 91 45 18 17 163 168 171 173 175 177 175 177 189 190 190 186 170 170 238 211 214 228 224 226 252 265 258 268 261 262 263 236 218 217 199 199 195 172 180 161 147 195 196 153 146 144 145 152 158 163 168 169 171 172 172 175
2 360 358 356 354 352 351 351 352 352 349 348 349 350 351 349 347 349 346 344 343 335 274 221 162 159 170 123 216 229 221 197 241 325 331 333 205 186 179 179 177 178 175 171 197 197 194 185 167 181 204 152 177 213 237 237 242 253 255 273 271 274 269 246 226 216 195 195 181 148 111 145 181 200 161 151 152 148 151 156 162 167 168 170 171 171 176 177
1 359 358 356 354 352 351 351 352 351 348 349 352 353 354 349 344 345 342 352 5 353 307 202 168 167 167 191 238 245 251 266 289 297 299 299 225 198 188 188 186 184 180 179 192 195 194 185 176 196 215 174 210 239 301 254 230 242 235 249 268 285 273 249 229 207 197 190 160 150 189 219 208 194 153 153 154 150 155 161 164 168 168 172 173 173 178 178
1 359 357 355 354 352 351 351 352 351 349 351 357 355 355 347 340 341 342 1 16 6 44 142 152 152 175 259 263 270 277 284 286 286 286 278 211 197 199 197 195 197 195 192 192 192 191 188 179 206 255 253 266 315 329 319 246 246 232 235 238 249 265 249 215 191 193 187 163 171 218 211 209 187 157 156 156 155 161 167 168 169 170 173 175 175 179 183
1 359 357 354 353 352 352 351 351 351 350 355 360 356 354 346 338 343 351 25 25 11 49 132 152 136 342 272 276 293 295 285 287 304 308 251 194 188 194 194 199 206 212 212 205 191 185 182 177 210 261 267 286 300 306 312 278 235 219 249 218 210 256 267 223 187 189 189 173 184 215 212 210 181 163 160 160 162 164 170 172 173 173 175 177 178 181 186
1 359 357 354 351 352 351 350 351 352 352 358 360 355 354 346 342 349 10 47 21 1 41 128 171 172 301 275 287 320 307 281 317 345 345 268 199 194 184 183 194 203 214 227 223 184 172 168 181 220 256 286 247 238 284 312 283 225 201 234 216 203 247 276 260 202 191 178 180 192 190 206 211 175 168 164 165 167 167 172 176 176 176 176 176 179 184 184
360 358 356 353 351 351 351 351 351 352 355 1 360 354 357 352 344 349 76 46 6 345 81 120 177 180 259 271 292 344 332 326 330 327 326 305 219 195 170 165 181 191 204 226 226 177 161 162 175 204 212 229 213 161 223 255 244 244 202 215 223 215 230 255 291 235 189 170 181 197 199 214 187 166 170 171 168 169 172 175 178 179 180 180 178 179 185 185
359 357 355 353 351 350 350 352 352 354 358 4 2 353 1 2 347 341 96 22 350 325 143 86 183 172 288 295 316 327 324 322 323 314 308 302 231 197 171 155 150 162 172 213 215 188 170 173 175 196 212 218 213 185 204 218 207 209 192 197 228 226 231 233 269 247 176 175 183 193 211 226 180 165 172 176 172 173 178 178 178 180 181 184 183 181 186 189
358 356 355 353 351 349 350 353 356 360 0 7 8 359 5 11 358 190 328 337 343 315 239 289 183 295 299 306 303 300 309 311 312 304 294 297 207 196 185 166 138 140 150 172 192 183 176 171 172 197 215 212 211 205 208 217 183 182 178 190 212 225 240 230 252 230 173 180 190 194 210 213 181 174 178 177 177 179 180 178 179 181 183 186 188 188 188 192
358 356 355 352 350 349 352 356 3 4 4 13 15 12 12 11 8 327 321 311 253 211 260 258 212 261 281 290 294 298 312 312 303 288 285 312 161 175 182 166 140 147 169 178 181 174 174 185 198 208 212 209 210 208 206 232 252 208 173 202 216 227 252 236 245 239 180 183 202 203 208 207 191 185 183 178 178 183 181 179 183 183 185 188 191 193 193 196
357 356 355 351 348 350 354 360 8 5 6 22 25 33 42 17 12 321 327 311 229 203 241 251 234 246 258 269 285 301 321 318 303 292 286 293 232 155 174 171 165 183 192 183 166 161 174 198 217 216 211 204 207 203 191 211 239 244 206 215 231 226 246 249 245 246 191 194 215 209 208 215 203 191 185 177 180 187 184 182 186 187 188 190 193 196 197 196
357 357 355 352 348 351 355 3 10 5 11 28 33 51 86 10 341 292 316 307 291 204 228 253 244 242 259 269 279 290 323 312 307 310 307 294 207 173 176 175 186 199 193 183 166 168 188 217 224 215 188 180 202 194 185 201 220 236 229 226 250 232 252 274 259 247 200 202 224 204 204 222 211 194 185 181 185 191 187 186 188 187 188 191 194 197 197 193
357 356 356 353 348 350 355 4 8 6 12 18 25 37 2 355 343 313 300 277 294 302 245 257 222 237 282 286 278 263 158 243 289 305 329 326 242 194 181 184 194 201 193 190 191 184 193 226 221 193 161 184 206 200 189 201 214 221 218 216 242 230 185 251 253 244 201 205 222 185 198 226 214 195 190 190 191 189 189 191 191 189 189 193 195 194 192 190
356 356 356 354 349 351 354 357 2 2 2 358 360 1 349 346 347 340 319 242 295 300 271 266 223 262 326 316 307 140 174 219 229 284 308 317 295 231 199 195 193 206 206 196 201 205 221 242 184 161 180 192 205 216 196 198 219 222 219 217 232 229 215 229 262 329 285 249 223 147 189 257 212 191 198 199 195 192 192 192 194 197 197 196 194 192 193 192
355 355 355 354 349 349 352 352 356 353 348 350 357 347 344 343 346 342 334 54 321 282 266 292 274 2 344 323 322 268 195 235 215 249 265 211 262 267 226 204 193 213 211 194 203 217 234 237 161 168 191 194 204 217 205 202 218 231 225 221 224 226 233 240 269 353 318 296 267 137 178 286 227 198 202 194 194 201 198 193 197 201 200 197 193 194 197 196
354 354 354 353 349 348 357 356 340 343 341 349 347 340 340 341 341 338 22 58 321 270 315 331 328 360 351 336 326 311 147 310 264 255 273 240 238 237 232 220 199 214 203 187 206 220 224 214 176 183 192 193 207 216 211 200 201 236 226 219 221 224 244 249 204 183 241 257 265 149 177 263 263 212 207 190 191 201 200 199 202 199 195 196 196 196 197 198
353 354 352 351 349 349 360 333 330 341 344 332 337 336 335 336 337 340 82 46 321 315 11 332 319 349 349 330 318 340 121 310 311 338 337 305 263 224 230 225 200 208 182 175 220 205 198 199 189 196 195 193 205 212 208 189 196 234 220 207 215 218 240 245 197 205 247 272 281 245 168 241 266 224 211 194 194 201 201 204 203 198 197 198 199 198 197 199
352 353 351 347 348 347 345 332 329 336 337 331 332 332 332 334 336 111 88 24 319 12 51 330 324 330 333 319 315 15 188 313 339 342 332 324 290 216 234 236 222 217 176 189 217 182 188 203 193 194 200 201 208 210 198 187 212 236 176 181 205 212 237 241 194 217 262 310 280 264 173 231 266 241 214 199 198 203 205 205 202 198 199 200 201 200 199 199
350 353 350 344 344 343 336 332 327 328 334 333 331 331 331 334 359 102 66 174 5 21 359 326 335 327 328 325 343 29 357 9 19 318 326 337 331 280 243 223 232 254 216 210 217 183 194 204 187 192 210 208 211 212 191 194 221 217 135 175 202 214 237 234 187 200 225 228 254 255 202 199 271 261 201 200 205 207 207 206 204 201 201 201 201 201 200 199
349 351 351 345 342 340 334 331 333 334 333 333 333 333 334 352 75 75 56 229 34 10 340 349 346 330 332 335 355 8 2 21 9 337 344 355 350 346 303 218 224 246 243 229 220 217 229 198 178 196 216 204 194 206 196 203 216 181 143 197 230 238 248 236 171 167 218 231 244 250 222 183 257 267 195 197 207 207 205 206 207 206 203 203 203 202 200 197
349 351 353 350 342 339 333 331 341 341 335 333 333 336 347 56 61 107 193 293 353 343 354 5 348 336 340 342 348 354 356 13 8 4 4 355 358 10 12 348 307 255 260 248 225 226 235 227 196 196 207 194 173 198 207 208 210 197 180 201 249 288 291 275 154 158 221 235 239 244 228 198 232 256 215 205 208 205 203 204 203 202 203 204 203 201 200 197
349 351 355 357 351 353 348 339 346 346 339 335 334 345 54 62 21 143 272 325 331 343 13 357 341 340 336 338 355 350 343 7 14 13 9 357 359 21 35 22 330 270 240 231 220 223 224 229 236 224 205 195 183 195 206 204 204 203 189 185 206 239 226 221 206 192 223 235 240 231 212 210 230 237 214 206 210 209 207 208 201 197 202 204 201 200 199 198
349 353 7 27 17 8 1 352 352 350 340 339 339 23 79 88 116 218 317 337 342 356 4 338 335 336 333 346 9 353 340 16 18 10 5 7 8 25 42 34 18 0 265 221 198 200 212 225 226 228 220 197 193 192 194 198 196 197 193 182 193 198 205 218 219 234 229 230 243 217 181 216 243 229 206 198 207 210 211 213 205 199 202 202 201 198 196 197
350 357 21 32 21 8 359 355 356 350 340 344 357 52 57 91 175 12 360 300 247 328 332 333 338 333 347 3 5 8 12 18 15 8 2 10 15 14 18 25 26 16 341 293 239 202 214 219 210 215 210 181 199 202 186 179 185 200 195 180 198 200 197 206 199 210 206 224 249 213 173 201 201 217 204 190 200 208 211 216 209 206 208 204 203 197 193 196
350 0 21 18 11 2 355 352 354 351 344 354 28 56 64 134 252 333 291 267 259 319 318 333 343 337 10 357 347 29 40 357 3 6 4 12 28 26 11 20 27 21 15 351 342 325 236 227 195 207 200 173 201 208 179 164 185 206 190 188 211 193 164 194 199 183 152 191 245 218 203 218 208 252 235 186 194 202 208 213 207 209 211 206 209 200 195 198
350 357 11 11 4 352 346 346 348 348 352 47 48 47 116 186 208 211 224 291 268 302 324 346 346 334 18 347 328 20 21 346 357 359 357 10 42 47 31 28 33 31 28 360 306 346 278 259 312 251 214 196 201 199 182 181 183 184 190 204 203 145 149 207 232 197 126 186 232 213 226 263 276 272 256 172 183 198 205 208 206 208 201 194 203 202 199 201
348 346 347 6 357 344 335 337 342 343 41 83 68 222 245 209 205 208 197 290 248 283 35 27 359 360 10 345 334 12 10 354 2 1 352 357 37 57 46 35 38 36 19 355 283 343 337 288 300 288 235 220 207 192 196 195 172 151 197 197 136 105 167 194 208 243 180 208 250 231 208 225 221 247 245 171 178 193 200 204 208 209 199 190 196 199 200 201
342 331 315 355 349 341 333 332 337 344 101 72 59 240 261 214 245 248 215 300 293 39 66 76 5 22 16 353 350 9 15 14 9 5 356 355 26 57 49 23 27 28 5 347 309 312 337 298 283 254 227 254 225 193 208 205 195 203 192 155 142 169 202 184 187 218 201 217 269 275 223 211 206 224 219 195 197 194 191 197 206 209 204 196 195 198 199 198
345 329 299 349 345 343 339 335 339 50 82 57 277 254 284 233 314 355 1 1 22 70 59 76 14 32 24 14 2 5 20 32 12 9 17 6 341 37 45 17 355 14 358 342 332 313 322 309 285 286 329 320 265 194 209 211 206 208 170 149 175 196 197 190 186 185 186 210 243 264 256 230 223 210 188 197 208 201 184 183 199 207 208 203 196 198 199 196
354 330 289 346 347 346 346 355 57 61 60 60 244 278 317 295 13 13 12 13 18 109 60 12 50 44 19 12 2 355 8 76 40 18 359 356 329 9 41 21 349 354 349 333 326 318 322 339 291 310 335 330 257 198 203 204 203 200 190 186 193 190 176 200 211 141 157 188 199 226 255 251 247 212 189 196 209 208 189 177 191 204 207 205 197 196 198 194
346 88 317 347 352 349 354 37 56 26 74 59 337 319 328 360 34 4 358 2 351 181 135 119 96 92 77 8 355 330 322 263 94 43 309 358 357 358 26 17 353 344 343 333 336 330 317 338 295 298 325 309 255 258 245 243 250 217 208 203 199 188 146 184 228 210 148 171 175 190 253 261 247 199 191 196 204 212 202 185 189 200 202 203 200 197 195 193
1 348 314 348 355 350 5 71 25 6 86 14 342 296 305 347 30 360 354 357 350 349 13 83 95 80 95 3 330 319 324 321 115 87 359 353 346 329 351 0 352 343 338 316 305 312 295 290 289 277 279 263 261 273 293 293 284 267 241 213 197 187 162 187 220 211 179 202 176 146 269 270 249 198 196 206 206 211 211 193 187 198 202 201 202 199 193 191
25 306 311 350 0 359 36 76 9 12 45 341 328 293 297 340 27 12 6 4 4 353 340 28 85 57 69 358 341 338 335 349 105 99 19 321 316 322 335 349 351 342 331 307 297 315 312 305 307 295 290 276 266 267 271 263 251 267 266 222 194 199 198 199 201 178 182 207 203 214 264 270 266 205 201 231 230 221 218 199 185 191 203 206 205 199 189 190
311 284 294 356 14 28 69 65 1 356 350 341 336 327 329 349 18 23 17 15 23 347 323 8 58 71 354 357 7 337 324 342 111 167 247 275 289 329 333 341 345 335 315 313 320 325 323 327 6 340 321 289 267 251 255 274 329 319 291 254 220 210 202 189 131 157 201 208 193 199 242 256 273 314 235 285 281 250 235 209 188 189 197 206 207 196 185 188
312 280 243 351 23 42 69 65 31 355 344 349 338 334 343 341 11 26 18 28 45 353 307 313 9 13 30 11 360 315 324 32 171 206 224 265 289 320 324 327 329 317 292 295 303 307 303 296 354 352 276 242 236 221 225 347 343 309 299 302 270 225 203 182 121 172 215 210 184 194 233 256 279 293 276 271 265 263 256 221 194 198 199 199 199 189 181 187
342 349 291 333 25 48 65 59 48 30 352 356 339 328 346 341 356 19 14 26 23 353 308 268 4 21 20 5 340 313 312 189 207 264 233 255 284 244 287 307 305 303 298 300 310 327 292 261 231 215 231 244 263 276 288 313 306 287 292 302 296 268 223 187 150 187 198 169 189 213 224 251 268 270 267 264 260 278 276 230 194 204 202 193 190 183 179 184
58 27 337 333 347 23 33 26 34 26 328 338 320 303 345 359 358 358 358 3 354 340 317 337 33 33 347 329 327 301 291 255 277 293 257 257 274 246 261 285 287 304 328 327 327 335 291 276 262 233 237 252 266 277 285 289 278 268 275 280 282 284 252 202 194 193 159 149 219 236 205 229 254 255 256 263 272 286 275 229 199 200 192 185 184 178 179 184
14 88 97 277 285 360 360 326 349 345 314 316 293 287 350 14 9 356 339 340 346 342 340 354 9 2 325 312 311 279 293 300 276 261 246 242 256 255 267 274 277 323 2 348 321 311 241 261 274 258 267 274 270 271 272 269 259 252 257 263 268 277 263 224 208 181 157 178 223 224 186 216 245 251 253 263 271 264 252 229 218 207 182 176 178 174 179 183
346 294 314 274 240 303 306 302 318 321 320 327 318 342 14 9 360 351 306 318 337 339 351 336 320 321 313 301 290 254 260 278 264 253 231 237 257 250 255 277 283 352 3 327 305 303 249 256 282 296 298 289 275 264 255 254 265 264 260 261 263 263 253 236 212 171 174 203 216 199 194 220 241 249 260 273 269 246 238 204 214 211 177 172 177 175 180 184
358 34 325 317 263 254 262 285 309 321 326 329 325 1 8 343 346 344 308 300 315 312 333 326 309 308 304 294 275 251 246 244 254 255 236 259 274 228 187 241 246 249 314 289 292 307 287 278 307 327 316 295 282 279 278 280 281 272 277 300 300 279 243 227 211 174 182 211 231 207 209 235 255 253 267 296 331 319 266 196 197 203 183 174 178 178 180 181
272 275 289 294 286 278 266 287 319 320 314 316 332 347 337 329 343 334 306 250 243 268 297 310 305 302 300 290 268 261 263 256 257 259 254 263 265 218 179 200 195 204 257 232 254 295 282 286 322 352 331 291 291 327 325 315 298 273 316 346 336 323 219 185 169 78 162 194 171 168 204 245 272 275 294 352 30 40 1 322 254 226 195 176 175 180 181 180
296 297 274 237 275 292 289 282 288 293 285 292 316 330 325 317 323 323 316 277 236 247 263 289 296 296 295 289 272 265 272 272 269 268 266 266 260 242 226 208 186 182 203 198 224 266 248 270 324 358 313 282 301 324 317 317 327 293 338 357 342 344 72 87 48 24 17 183 159 173 219 250 277 299 3 53 51 47 31 7 332 273 225 193 181 179 180 180
Height
812 809 807 805 803 800 798 796 793 791 789 787 785 783 781 779 778 776 774 772 771 769 768 766 765 764 762 761 760 759 759 758 756 759 754 734 731 740 742 743 745 749 751 752 754 757 762 765 767 768 771 774 775 775 775 773 772 780 790 799 801 797 790 776 770 767 765 767 768 767 765 769 774 772 768 768 774 775 775 774 772 771 770 773 777 781 786 790
811 809 806 804 802 799 797 795 792 790 788 786 784 782 780 778 776 775 773 771 770 768 767 765 763 762 761 760 759 758 758 756 756 754 739 725 730 736 739 741 744 747 748 750 751 753 759 763 765 768 772 775 775 774 776 773 773 782 789 796 795 786 777 766 762 759 758 761 763 765 764 765 768 769 768 774 782 779 780 780 775 778 778 778 780 784 788 790
810 808 805 803 801 798 796 793 791 789 786 784 782 780 778 776 775 773 772 770 768 767 765 764 762 761 760 759 758 757 757 756 754 742 726 722 727 729 734 739 741 744 744 745 748 749 753 758 762 767 773 777 775 774 777 773 773 779 785 795 786 772 768 761 758 756 753 754 759 764 762 764 765 764 767 774 782 781 782 780 778 783 783 782 783 784 788 790
809 807 804 802 799 797 794 792 790 787 785 783 780 779 777 775 773 771 770 768 767 765 764 762 761 759 759 757 757 757 757 756 745 728 721 722 722 723 729 735 738 742 743 744 747 750 751 756 762 765 772 778 775 774 777 773 772 775 779 785 772 764 768 760 755 754 751 750 755 761 763 767 762 760 766 771 782 785 778 772 771 776 779 780 782 784 787 789
808 806 803 800 798 795 793 790 788 786 784 781 779 777 775 773 772 770 768 767 765 763 762 761 759 758 757 756 757 756 757 754 734 720 722 721 720 722 724 731 736 739 743 746 748 751 754 756 761 766 771 776 777 776 775 767 767 773 770 767 762 762 767 758 752 752 750 750 754 760 764 764 759 761 764 767 778 776 765 762 764 767 770 773 777 781 785 787
808 805 802 799 796 794 791 789 787 784 782 779 777 775 773 772 770 768 766 764 763 761 760 759 758 757 757 756 757 756 757 748 726 720 723 720 721 721 723 729 734 738 742 745 747 751 754 757 763 768 771 773 775 774 770 764 765 773 767 759 758 759 762 755 751 750 748 754 759 759 757 755 760 764 760 761 766 760 754 757 761 763 765 769 773 778 782 785
807 804 801 798 795 793 790 788 785 782 780 777 775 773 771 770 768 766 764 762 761 758 758 757 756 756 756 756 756 757 757 741 722 721 722 720 722 720 724 728 733 738 740 743 746 750 753 758 762 765 769 772 772 769 767 763 764 772 769 759 755 755 755 751 750 749 748 753 754 751 752 755 762 763 758 758 757 752 754 756 760 765 767 770 774 777 780 782
806 803 800 797 794 791 789 786 783 781 778 775 773 771 770 768 766 764 761 760 758 757 756 755 756 755 755 756 756 757 755 736 720 722 721 720 721 720 723 728 733 736 737 740 741 745 750 756 760 761 769 770 765 766 765 766 767 769 765 756 753 752 750 748 749 750 749 750 748 749 755 756 754 754 756 756 753 750 752 757 761 766 770 773 775 778 780 783
805 803 799 796 793 790 787 784 782 779 776 773 771 769 768 766 764 761 760 758 756 756 754 754 755 754 755 755 757 755 743 727 721 721 719 720 720 719 721 725 732 734 736 739 738 743 748 753 755 755 763 764 761 763 762 770 771 760 756 753 752 752 748 747 748 748 749 747 746 751 757 753 747 749 756 752 748 749 751 758 763 767 772 774 775 777 779 782
805 802 799 796 792 789 786 783 780 777 775 772 769 768 766 764 762 759 758 756 754 753 752 754 753 754 755 754 758 753 731 721 723 721 720 722 721 721 722 723 728 732 735 737 739 742 743 747 748 748 756 759 759 761 760 764 760 750 751 752 751 750 746 745 747 744 745 746 745 751 756 751 745 752 761 753 745 748 753 760 763 767 772 773 775 776 778 781
805 801 798 795 791 788 785 782 779 776 773 770 768 766 764 762 760 758 756 754 753 752 752 752 752 754 754 753 757 747 725 720 721 720 723 724 723 723 723 724 726 730 733 736 738 738 739 742 743 749 757 757 757 759 756 753 750 747 750 753 749 747 746 744 746 743 744 748 744 746 753 751 749 754 759 752 746 748 755 762 764 768 771 772 774 776 778 780
805 801 797 794 791 787 784 781 778 775 772 770 768 765 763 761 758 757 755 753 752 751 751 751 753 753 753 755 751 734 721 721 720 720 724 725 726 725 724 725 724 726 730 734 737 736 739 740 742 751 754 752 757 760 754 745 746 749 750 758 754 749 749 744 743 742 744 748 740 744 761 762 757 755 752 748 747 749 755 762 765 768 770 771 774 776 778 779
805 801 797 793 790 786 783 780 777 774 771 769 767 764 762 759 758 756 754 753 752 752 751 752 753 752 755 751 735 722 720 722 720 719 722 724 726 726 727 728 726 727 727 728 732 733 738 740 742 748 746 750 757 753 746 741 745 750 751 758 759 760 757 742 738 740 743 745 734 745 774 775 760 752 748 746 748 752 759 762 765 768 769 771 773 775 777 778
804 801 797 793 789 786 782 779 776 773 770 768 766 764 762 759 757 755 754 753 752 752 752 752 753 753 756 743 722 720 722 721 720 717 719 723 724 725 727 728 729 731 730 729 730 732 737 739 742 747 746 749 750 746 747 749 749 752 755 757 762 772 763 739 736 741 745 743 730 745 774 773 758 752 747 745 747 753 761 763 764 766 768 770 771 774 776 775
804 800 796 792 789 785 781 778 775 772 769 767 765 763 761 758 756 754 753 752 752 753 751 753 753 754 756 741 721 720 720 719 719 717 718 720 722 724 724 727 730 731 733 734 734 735 737 740 745 751 749 745 748 755 759 759 754 754 763 767 764 769 762 742 735 737 744 742 732 746 769 766 755 751 745 743 746 751 759 762 762 765 766 768 770 772 774 774
803 799 796 792 788 784 781 778 775 772 769 766 764 763 760 758 755 753 753 752 753 752 752 754 753 755 755 737 720 719 719 719 719 718 718 719 720 721 722 726 728 731 734 735 737 737 739 743 746 749 751 751 755 762 766 769 766 758 764 772 766 765 763 751 737 730 734 740 739 746 760 761 752 747 743 742 745 751 757 760 761 763 764 765 768 770 772 774
802 799 795 791 787 784 780 777 774 772 769 766 764 762 760 757 754 753 753 753 753 752 753 753 753 755 746 726 720 723 722 721 720 718 717 718 720 720 722 726 728 731 734 736 738 739 740 745 748 749 752 756 758 763 775 783 778 767 764 767 763 761 762 757 745 731 729 739 745 745 751 754 747 743 744 742 744 750 756 758 759 761 762 763 765 768 770 771
802 798 794 790 786 783 780 777 774 771 769 766 763 761 759 757 754 753 753 753 753 753 754 753 754 754 738 724 726 727 724 722 719 717 716 715 717 719 721 723 726 731 737 741 741 741 744 746 749 755 757 758 758 762 775 775 768 768 767 765 764 759 759 758 749 736 732 740 746 749 751 750 745 743 743 741 742 748 752 754 756 757 760 761 763 766 767 768
800 796 792 788 785 782 779 776 773 771 769 766 763 760 758 755 753 752 752 754 755 754 753 752 753 751 740 731 728 725 724 723 719 716 714 713 714 717 720 722 725 732 742 747 745 742 745 748 754 760 758 752 750 752 760 757 753 759 760 760 763 760 757 753 745 734 733 743 748 750 751 748 747 746 742 741 740 745 750 751 754 756 757 760 761 762 763 765
800 796 791 787 784 781 778 775 774 772 769 766 763 758 758 759 758 756 751 750 754 753 750 748 749 749 744 735 728 724 722 720 719 716 713 714 715 717 720 723 728 735 741 745 746 741 742 754 757 751 744 739 741 745 749 750 749 751 755 756 757 758 756 747 741 732 728 744 749 744 746 746 746 744 740 740 742 746 751 752 754 755 756 757 758 759 759 760
800 796 791 787 784 780 778 775 774 772 770 768 764 762 767 771 772 769 758 747 744 748 747 744 745 745 740 733 728 726 725 722 718 715 714 714 714 720 723 724 733 740 738 739 742 738 743 756 749 735 734 737 740 743 745 749 749 750 754 757 756 757 753 742 739 733 727 742 747 740 746 746 741 741 738 738 743 746 747 750 751 751 752 753 754 755 755 755
800 795 791 787 782 780 778 775 774 773 771 769 767 769 773 776 777 776 771 759 745 744 746 741 742 742 736 731 728 728 732 730 720 714 714 714 715 721 723 725 734 737 735 737 741 745 751 750 735 729 734 737 739 740 744 747 748 751 753 757 759 754 750 743 736 732 730 740 745 741 747 746 737 736 735 735 738 739 738 740 743 745 748 750 750 751 752 755
799 794 790 786 782 779 777 775 775 773 771 770 770 772 774 775 774 773 775 770 755 744 742 741 741 740 735 732 728 728 734 735 728 719 715 717 718 719 722 726 732 733 734 737 740 748 752 739 726 729 734 736 740 740 743 747 748 751 752 757 758 750 752 751 738 732 731 734 738 740 745 744 736 735 735 731 729 731 732 733 735 737 741 741 741 743 748 752
797 793 789 785 781 778 776 775 774 773 772 771 771 772 773 773 773 772 771 770 763 749 741 740 739 738 736 732 729 731 733 733 731 722 716 720 720 718 720 723 729 732 731 731 734 740 739 726 721 729 732 735 742 741 743 749 751 749 748 752 752 747 749 748 740 735 732 731 730 737 751 749 740 743 741 731 729 731 731 733 736 736 734 734 737 740 744 746
796 792 788 784 781 778 775 775 773 773 772 771 772 771 771 770 770 770 769 771 767 752 742 740 738 739 735 731 730 729 731 730 726 721 715 718 720 719 719 717 723 732 729 728 734 736 732 721 719 728 732 734 740 742 742 745 751 751 744 741 742 743 744 743 743 743 748 750 734 736 765 763 743 744 741 733 735 736 733 734 736 735 734 737 741 742 742 743
795 791 786 784 781 777 775 774 773 773 771 771 771 769 769 768 768 767 770 778 772 751 743 743 741 741 735 734 730 725 734 732 720 717 716 715 716 716 721 716 715 723 724 724 730 729 724 719 720 726 730 734 739 741 737 738 752 754 736 729 735 740 743 745 746 750 759 760 737 733 762 767 751 745 737 732 736 735 732 733 732 732 735 737 738 738 738 740
795 791 786 783 781 778 776 775 774 773 772 771 769 768 767 765 767 765 769 784 776 750 747 749 745 744 739 737 731 730 744 736 717 715 715 715 713 710 719 718 714 717 714 721 732 724 716 719 723 724 728 734 738 738 731 732 747 744 724 725 736 739 743 744 748 753 753 750 741 735 747 761 759 746 732 729 735 735 732 731 729 730 732 731 731 732 733 734
794 790 786 782 780 779 777 777 776 773 772 771 767 766 765 763 765 764 771 785 771 750 754 754 746 744 740 737 733 735 742 735 728 724 712 710 711 709 718 717 715 716 708 718 731 718 709 717 720 722 729 733 729 726 723 727 738 731 720 725 732 736 739 740 747 753 748 753 758 745 743 762 762 739 727 729 735 738 732 727 726 726 726 726 726 727 727 728
793 790 786 782 780 779 778 777 775 773 772 769 766 764 762 761 761 765 777 782 766 754 758 754 748 747 742 737 736 735 734 733 738 731 713 710 710 708 715 713 713 717 709 711 721 714 706 707 711 718 725 726 721 718 718 725 730 723 719 724 727 732 735 738 747 751 751 763 766 748 744 764 761 737 732 737 736 734 728 721 720 718 718 720 721 723 724 725
792 789 785 782 780 779 778 777 774 774 771 768 766 762 759 760 763 774 786 780 767 763 759 755 755 754 750 745 741 738 737 737 736 728 719 716 712 707 707 704 707 715 713 708 711 710 703 698 702 708 712 714 715 716 716 718 721 720 722 729 733 734 734 740 744 746 760 770 760 743 738 755 761 740 730 733 726 720 720 719 718 715 716 718 717 719 720 722
791 788 785 782 780 780 779 777 774 773 770 767 765 759 759 763 769 783 786 772 769 770 763 762 763 758 757 755 751 746 742 741 738 734 732 726 722 721 720 718 716 717 720 718 714 709 705 705 704 700 699 704 712 716 714 713 715 721 728 734 744 746 743 749 751 753 771 771 750 737 734 748 760 741 721 717 709 705 710 712 712 713 713 712 712 713 714 716
791 787 784 782 781 781 781 779 775 772 769 767 764 760 763 770 778 789 784 771 775 777 770 770 768 763 762 759 758 754 748 748 745 743 745 743 741 741 746 752 746 737 732 725 721 716 711 708 704 699 696 697 710 720 719 717 717 724 732 739 756 765 762 767 768 763 769 762 739 730 735 744 744 724 709 708 702 698 698 696 699 703 704 704 705 707 709 711
791 787 784 783 782 782 781 779 776 773 770 767 765 763 766 775 785 790 785 779 781 778 772 773 770 767 765 762 763 758 753 754 751 749 749 748 750 751 753 754 749 748 742 727 723 723 719 710 702 703 701 693 702 718 725 725 722 726 732 740 757 770 776 780 774 766 765 754 732 725 736 741 731 709 697 697 695 690 688 686 689 692 693 695 696 698 702 705
791 787 785 784 783 782 780 779 776 774 771 768 768 768 773 784 788 786 785 784 779 774 772 774 772 770 768 767 767 763 762 761 755 756 754 751 756 758 755 753 749 754 752 736 727 726 727 722 706 701 700 694 695 704 711 715 719 721 719 728 742 749 760 770 767 764 762 750 734 731 737 735 721 701 684 683 684 681 681 681 683 687 687 687 689 693 699 702
791 788 786 783 782 781 780 779 776 774 773 771 773 778 785 792 791 786 786 782 777 776 775 773 773 775 775 771 767 765 769 769 761 761 761 757 762 764 763 761 758 760 760 755 749 740 729 714 695 688 687 688 693 692 692 705 719 715 708 722 731 724 731 746 748 744 744 744 738 732 727 715 701 686 674 677 680 677 678 679 681 687 687 689 694 696 699 700
790 787 786 783 782 780 779 778 776 774 774 774 781 788 789 789 786 783 781 776 776 777 777 777 776 779 781 777 772 769 769 770 767 767 765 760 763 767 767 765 763 764 769 772 770 762 749 722 698 695 688 679 684 685 684 697 710 710 713 719 713 704 715 735 742 734 736 746 738 722 716 707 698 688 674 677 683 680 680 679 680 682 683 689 695 696 697 697
791 788 786 784 782 781 779 777 775 774 774 778 787 790 786 782 779 777 775 773 774 774 777 785 781 780 785 783 778 775 773 773 772 772 770 765 765 769 770 768 766 767 771 775 770 764 765 749 718 709 702 680 674 681 681 682 690 705 715 707 700 706 712 723 741 743 744 750 735 718 717 711 709 701 680 677 685 685 683 680 678 678 680 686 689 689 691 691
794 791 788 786 785 782 778 776 774 774 775 781 788 786 782 780 776 774 774 773 773 773 779 787 784 780 785 786 783 778 777 780 780 777 775 772 770 770 772 771 769 769 768 770 769 760 763 761 727 701 702 688 673 683 692 684 679 690 697 691 700 722 724 722 737 743 747 751 735 721 718 710 706 699 682 679 682 680 682 682 679 678 678 681 682 682 683 684
797 792 788 787 785 781 777 774 772 773 777 784 789 785 780 779 775 774 775 773 773 776 780 784 783 782 783 785 785 781 780 784 785 782 780 778 775 769 770 773 770 771 769 766 767 761 758 765 741 703 699 700 684 687 701 696 684 683 687 688 694 707 715 718 723 725 734 744 737 728 722 707 695 685 675 674 672 670 678 681 679 675 673 674 676 676 678 680
801 797 790 786 784 780 775 772 772 776 782 788 791 786 781 778 777 776 775 774 774 776 780 781 781 784 784 783 784 782 781 783 785 786 784 780 779 773 770 774 772 771 771 765 765 763 758 764 757 725 711 710 695 686 690 691 691 692 695 698 696 696 701 708 711 709 716 731 734 733 726 702 682 674 667 664 662 662 667 673 674 670 666 666 668 669 671 674
805 801 793 787 783 779 775 775 780 785 788 792 793 789 783 778 779 779 776 775 774 773 775 778 780 783 784 783 784 782 781 781 784 788 785 780 782 780 772 773 776 773 771 767 765 765 762 764 766 750 735 726 704 683 680 686 690 691 693 694 693 695 701 715 723 710 702 714 719 724 724 696 668 664 661 656 656 655 656 662 667 665 662 662 661 661 664 667
807 804 796 790 786 781 778 785 793 793 794 796 796 793 786 779 781 782 779 776 776 773 772 775 778 780 782 783 783 782 781 782 784 787 787 783 783 783 777 775 777 775 774 772 766 761 759 762 764 756 743 730 708 688 688 693 692 689 688 684 684 690 694 710 724 711 701 708 705 711 719 689 655 653 653 650 651 649 649 654 660 661 659 657 656 656 658 661
811 807 797 793 790 783 783 795 802 801 800 799 796 792 786 782 783 783 782 781 781 779 777 777 778 780 781 781 781 783 782 783 785 786 786 786 784 781 778 777 779 778 775 773 766 759 757 761 765 758 737 715 699 690 686 685 686 689 686 678 679 685 683 686 697 698 702 707 703 714 721 686 650 647 649 648 648 647 647 649 654 658 656 653 652 652 655 658
815 810 801 797 793 786 792 807 811 810 807 803 799 794 787 784 783 784 785 785 785 786 783 780 780 781 781 781 781 783 783 784 787 785 784 785 783 779 778 778 779 780 776 773 768 764 765 765 767 767 748 716 698 694 689 688 695 703 699 685 675 674 677 681 685 690 699 700 697 714 720 683 650 647 649 649 650 648 646 646 647 651 651 649 648 649 652 655
815 809 803 801 797 793 801 811 814 814 812 809 806 799 793 788 786 785 787 786 786 788 786 782 780 780 780 782 783 782 782 783 785 784 783 783 780 778 779 779 779 779 775 771 766 764 767 767 766 773 768 742 721 717 720 725 727 720 709 698 684 674 674 681 689 697 702 698 693 702 702 677 654 649 647 648 650 648 645 644 644 643 642 642 643 646 650 653
818 813 808 805 801 801 807 810 812 815 815 814 811 802 798 796 791 788 788 788 788 788 786 782 780 781 782 784 785 785 782 781 781 782 782 782 780 779 779 778 779 777 773 769 763 761 766 766 764 769 770 758 746 741 739 743 743 732 719 711 702 688 676 675 687 695 695 696 696 689 683 676 664 653 647 646 649 647 642 642 643 639 638 638 639 643 647 650
820 819 817 814 808 807 810 810 813 817 816 816 813 804 801 802 798 795 791 790 790 789 786 783 783 786 788 787 788 787 783 780 781 781 780 779 779 778 778 778 777 776 772 769 765 763 768 769 764 762 761 757 752 746 739 740 742 736 727 716 706 696 683 674 679 682 681 692 698 683 675 679 667 652 647 644 644 642 639 640 640 634 634 636 637 641 644 647
819 819 818 819 817 816 817 814 814 817 815 813 810 804 804 806 805 804 799 793 792 791 789 788 787 788 790 789 789 788 784 784 784 780 778 779 779 779 780 779 776 774 773 773 769 765 769 770 762 758 757 752 747 742 737 737 735 727 722 714 701 694 688 675 670 670 671 680 686 676 674 675 660 646 644 640 640 641 637 637 636 631 630 633 635 640 644 646
820 820 818 818 820 820 820 817 816 817 815 811 808 805 807 809 808 808 804 799 797 794 793 795 793 790 789 787 787 788 786 786 785 780 779 779 778 780 784 782 777 774 775 778 773 765 767 767 758 756 758 750 742 738 732 729 726 716 709 705 695 689 684 674 666 666 665 667 669 666 668 666 651 642 641 638 639 641 635 633 635 633 631 633 636 640 642 644
821 822 820 820 820 819 819 818 817 818 815 812 809 807 808 809 809 808 806 805 805 800 796 797 795 791 789 787 786 786 783 782 782 779 778 779 777 778 782 782 779 777 778 780 774 767 768 766 756 757 760 748 735 729 724 722 722 713 702 698 692 681 672 667 665 665 665 666 665 667 670 663 648 642 642 639 639 641 637 634 634 633 630 631 635 638 640 642
820 820 820 822 821 817 817 817 817 819 818 813 809 808 807 808 809 809 806 804 805 803 798 797 795 791 789 787 785 783 779 777 777 775 773 775 774 772 773 775 776 779 781 780 776 770 769 766 759 761 765 752 733 726 725 722 716 708 703 702 697 682 669 668 674 675 671 668 667 670 672 665 651 644 644 642 641 643 642 638 635 634 630 629 633 637 638 640
820 819 819 822 821 817 817 818 819 820 817 811 808 807 808 807 807 810 809 803 800 799 796 795 794 792 790 787 783 779 776 774 773 770 768 768 766 764 764 765 767 773 777 778 777 772 768 766 763 766 768 754 735 731 730 720 711 707 707 707 701 688 674 674 685 689 683 676 673 670 668 663 655 650 648 647 647 649 648 643 638 636 633 630 630 632 634 636